CAPE
0 0 0 0 0 0 0 0 0 0 0 0 0 0 0 0 0 0 0 0 0 0 0 0 0 0 0 0 0 0 0 112 1069 1408 1590 1621 1367 1121 896 914 691 532 768 606
0 0 0 0 0 0 0 0 0 0 0 0 0 0 0 0 0 0 0 0 0 0 0 0 0 0 0 0 0 0 0 0 605 1192 1248 1498 1401 1163 945 778 919 737 567 496
0 0 0 0 0 0 0 0 0 0 0 0 0 0 0 0 0 0 0 0 0 0 0 0 0 0 0 0 0 0 18 9 37 1249 1375 1229 1147 1019 897 697 650 1005 777 465
0 0 0 0 0 0 0 0 0 0 0 0 0 0 0 0 0 3 0 0 1 3 1 0 1 0 0 0 0 0 56 86 80 380 996 1025 825 919 899 863 656 735 918 699
0 0 0 0 0 0 0 0 0 0 0 0 0 0 0 0 1 45 36 8 17 2 0 0 0 18 11 18 2 0 62 179 231 309 683 1054 867 855 703 947 824 769 804 721
0 0 0 0 0 0 0 0 0 0 0 0 0 0 0 13 31 69 50 10 1 1 14 0 1 4 68 67 81 24 251 356 359 447 719 1078 813 996 1043 1008 953 695 622 588
0 0 0 0 0 0 0 0 0 0 0 0 0 0 0 13 6 1 8 0 0 0 0 0 0 10 26 40 100 211 299 437 537 645 679 1082 1065 1021 1036 1026 980 951 664 473
0 0 0 0 0 0 0 0 0 0 0 0 0 0 0 1 8 10 30 18 0 0 0 0 0 3 25 10 68 143 292 341 476 637 592 610 1248 1235 1311 1171 1081 890 709 493
0 0 0 0 0 0 0 0 0 0 0 0 0 0 6 25 17 10 0 0 5 0 0 0 0 1 6 0 5 44 138 339 630 599 646 692 589 1421 1437 1499 1387 1063 929 559
0 0 0 0 0 0 0 0 1 0 0 0 0 0 0 2 2 1 0 0 0 0 0 0 0 0 1 5 0 0 56 157 430 1346 1268 1343 1366 1504 1417 1257 1035 1032 1003 616
0 0 0 0 0 0 0 1 6 6 6 0 0 0 0 0 0 1 0 0 0 0 0 0 0 0 0 0 0 0 3 106 283 325 1045 1175 1166 1123 1196 897 793 779 667 702
0 0 0 0 0 0 0 0 0 0 0 0 0 0 0 0 0 0 0 0 0 0 0 0 0 0 0 0 0 0 0 30 174 269 267 819 676 584 679 723 963 913 728 606
0 0 0 0 0 0 0 0 0 13 14 0 0 0 0 15 5 5 0 0 0 0 0 0 0 0 0 0 0 0 2 4 44 83 476 290 469 284 200 542 988 1039 748 665
2 0 0 0 0 0 0 0 0 1 0 0 3 0 0 8 0 0 0 0 0 0 0 0 0 0 0 0 0 0 0 0 1 22 56 424 112 39 299 676 728 727 702 599
0 0 0 0 4 1 0 0 0 0 0 43 0 2 0 0 0 0 0 0 0 0 0 0 0 0 0 0 0 0 0 0 0 3 10 64 320 312 561 764 582 573 803 797
0 0 0 0 4 2 0 0 8 8 8 8 15 0 0 0 0 0 0 0 0 0 0 0 0 0 0 0 0 0 0 0 0 0 0 61 476 889 621 662 664 665 594 902
2 13 10 0 0 14 2 0 1 8 1 3 0 0 0 0 0 0 0 0 0 0 0 0 0 0 0 0 0 0 0 0 0 0 0 163 532 548 770 519 532 623 384 577
11 41 49 3 20 45 0 8 7 1 0 0 0 0 0 1 0 0 0 0 0 0 0 0 0 0 0 0 0 0 0 0 0 0 1 394 470 378 417 400 209 429 401 360
17 13 41 35 4 0 0 7 20 13 0 0 0 0 2 0 0 0 0 0 0 0 0 0 11 8 4 0 0 0 0 0 0 6 4 421 343 306 313 289 242 313 585 715
14 21 4 0 0 0 12 4 13 33 0 0 0 1 0 0 0 0 0 0 0 0 0 0 0 0 1 1 0 0 0 0 5 6 18 266 325 264 251 147 57 258 245 259
0 0 0 1 0 0 5 1 10 13 5 6 0 0 0 0 0 0 0 0 0 0 0 0 1 0 0 0 0 0 0 0 9 5 12 412 458 467 237 114 112 251 301 315
0 0 0 0 0 0 3 1 0 5 2 2 0 0 0 0 0 0 0 0 0 0 0 0 2 0 0 0 0 0 0 0 15 13 181 394 254 280 303 115 146 155 267 425
0 0 0 0 0 0 0 17 21 7 8 0 0 0 0 0 0 0 0 0 0 0 0 0 8 0 0 0 0 0 0 0 1 39 212 128 108 192 308 143 109 128 233 52
0 0 0 0 0 0 0 12 7 3 3 2 0 0 0 0 0 0 0 0 0 0 3 2 0 0 0 0 0 0 0 0 5 66 83 53 115 126 132 168 135 187 81 14
0 0 0 0 0 0 8 8 0 0 0 0 0 0 0 0 0 0 0 0 0 0 4 4 7 21 0 0 0 0 0 0 51 63 28 14 6 45 60 153 123 192 79 54
0 0 0 0 8 26 1 2 0 0 0 0 0 0 0 0 0 0 0 0 0 6 10 3 32 11 0 0 0 0 0 15 54 21 10 12 0 8 69 97 56 81 114 100
CIN
0 0 0 0 0 0 0 0 0 0 0 0 0 0 0 0 0 0 0 0 0 0 0 0 0 0 0 0 0 0 0 -152 -175 -114 -75 -39 -23 -26 -28 -71 -14 -26 -76 -76
0 0 0 0 0 0 0 0 0 0 0 0 0 0 0 0 0 0 0 0 0 0 0 0 0 0 0 0 0 0 0 0 -240 -132 -126 -90 -81 -56 -41 -81 -26 -31 -60 -75
0 0 0 0 0 0 0 0 0 0 0 0 0 0 0 0 0 0 0 0 0 0 0 0 0 0 0 0 0 0 -257 -183 -310 -157 -127 -113 -103 -67 -59 -78 -56 -2 -40 -60
0 0 0 0 0 0 0 0 0 0 0 0 0 0 0 0 0 -74 0 0 -40 -68 -37 0 -48 0 0 0 0 0 -344 -234 -309 -320 -181 -120 -100 -94 -80 -53 -68 -63 -6 -8
0 0 0 0 0 0 0 0 0 0 0 0 0 0 0 0 -6 -72 -78 -12 -12 -56 0 0 0 -87 -86 -152 -47 0 -390 -280 -280 -322 -199 -160 -136 -130 -128 -64 -37 -78 -53 -4
0 0 0 0 0 0 0 0 0 0 0 0 0 0 0 -52 -71 -81 -59 -32 -17 -15 -65 0 -21 -66 -34 -73 -115 -98 -365 -297 -267 -276 -253 -160 -142 -128 -97 -65 -21 -37 -64 -20
0 0 0 0 0 0 0 0 0 0 0 0 0 0 0 -62 -88 -63 -18 -29 0 0 0 0 0 -141 -142 -34 -83 -120 -210 -195 -222 -237 -221 -184 -137 -121 -103 -66 -25 -21 -33 -28
0 0 0 0 0 0 0 0 0 0 0 0 0 0 0 -4 -45 -70 -74 -8 0 0 0 0 0 -102 -108 -94 -34 -56 -86 -114 -151 -177 -156 -124 -148 -122 -70 -43 -25 -21 -23 -50
0 0 0 0 0 0 0 0 0 -1 0 0 0 0 -95 -53 -55 -58 0 -5 -29 -1 0 -6 -9 -72 -93 0 -61 -49 -57 -83 -143 -207 -258 -259 -279 -90 -55 -33 -18 -16 -14 -34
0 0 0 0 0 0 0 0 -1 0 0 0 0 0 0 -12 -26 -10 0 0 -8 0 0 0 0 0 -8 -32 0 0 -49 -110 -77 -110 -142 -131 -114 -80 -48 -39 -22 -19 -23 -38
0 0 0 0 0 0 0 -1 -2 -4 -4 0 0 0 0 0 0 -7 0 0 0 0 0 0 0 0 0 0 0 0 -52 -128 -152 -59 -36 -54 -42 -38 -40 -18 -26 -24 -24 -45
0 0 0 0 0 0 0 0 -2 0 0 0 0 0 0 0 0 0 0 0 0 0 0 0 0 0 0 0 0 0 0 -90 -102 -52 -33 -185 -75 -23 -21 -42 -22 -18 -25 -50
0 0 0 0 0 0 0 0 0 -36 -12 0 0 0 0 -20 -16 -9 0 0 0 0 0 0 0 0 0 0 0 0 -21 -41 -40 -43 -56 -177 -247 -141 -46 -78 -37 -22 -32 -57
-17 0 0 0 0 0 0 0 0 -4 0 0 -1 -4 0 -18 -3 0 0 0 0 0 0 0 0 0 0 0 0 0 0 0 -14 -72 -52 -64 -101 -113 -257 -120 -78 -53 -43 -52
0 0 0 0 -66 -9 0 0 0 0 -2 0 0 -7 0 0 0 0 0 0 0 0 0 0 0 0 0 0 0 0 0 0 0 -62 -70 -84 -30 -49 -41 -84 -74 -111 -35 -11
0 0 0 0 -52 -24 0 0 -62 -79 -38 -32 -14 0 0 0 0 0 0 0 0 0 0 0 0 0 0 0 0 0 0 0 0 -6 0 -111 -133 -112 -144 -90 -60 -102 -76 0
-2 -6 -3 0 0 -3 -1 -6 -18 -25 -22 -15 0 0 0 0 0 0 0 0 0 0 0 -1 0 0 0 0 0 0 0 0 0 0 0 -108 -125 -89 -63 -50 -76 -60 -115 -46
-7 -13 0 -1 -3 -1 0 -62 -64 -8 0 0 0 0 0 -2 -2 0 0 0 0 0 0 0 0 0 0 0 0 0 0 0 0 -5 -7 -83 -115 -99 -71 -59 -41 -37 -56 -65
-21 -16 -8 0 -1 0 0 -31 -6 -7 0 0 0 0 -4 0 0 0 0 0 0 0 0 0 0 0 0 0 0 0 0 0 0 -17 -26 -69 -96 -108 -83 -57 -66 -22 -1 -1
-6 -4 -8 0 0 0 -14 -11 -26 -23 0 0 -2 -1 0 0 0 0 0 0 0 0 0 0 0 0 0 0 0 0 0 0 -1 -8 -42 -68 -75 -76 -86 -36 -145 -60 -24 -49
0 0 0 0 0 0 -17 -6 -39 -3 -1 -2 -1 0 0 0 0 0 0 0 0 0 0 0 0 0 0 0 0 0 0 0 -1 -2 -40 -52 -63 -37 -58 -39 -94 -89 -52 -37
0 0 0 0 0 0 -11 -5 0 -1 0 0 0 0 0 0 0 0 0 0 0 0 0 0 0 0 0 0 0 0 0 0 0 -1 -31 -51 -81 -62 -69 -52 -58 -50 -54 -27
0 0 0 0 0 0 0 -9 0 0 0 0 0 0 0 0 0 0 0 0 0 0 0 0 -1 0 0 0 0 0 0 0 -1 -1 -3 -84 -112 -76 -49 -68 -69 -59 -45 -130
0 0 0 0 0 0 0 -5 -1 -1 0 -1 0 0 0 0 0 0 0 0 0 0 -1 0 0 0 0 0 0 0 0 0 -1 -45 -25 -76 -89 -93 -85 -52 -43 -42 -20 -82
0 0 0 0 0 -1 -1 -2 -1 0 0 0 0 0 0 0 0 0 0 0 0 0 0 0 0 -1 0 0 0 0 0 0 0 -26 -35 -41 -88 -85 -71 -27 -26 -19 -18 -9
0 0 0 0 -1 -1 -1 -1 0 0 0 0 0 0 0 0 0 0 0 0 0 -1 0 -1 0 0 0 0 0 0 0 -2 -24 -15 -21 -56 0 -13 -47 -32 -28 -1 -1 -2
Wind_Speed
nan nan nan nan nan nan nan nan nan nan nan nan nan nan nan nan nan nan nan nan nan nan nan nan nan nan nan nan nan nan nan 61 70 68 66 60 56 55 55 56 47 43 39 41
nan nan nan nan nan nan nan nan nan nan nan nan nan nan nan nan nan nan nan nan nan nan nan nan nan nan nan nan nan nan nan nan 66 65 66 66 62 57 53 53 48 47 42 37
nan nan nan nan nan nan nan nan nan nan nan nan nan nan nan nan nan nan nan nan nan nan nan nan nan nan nan nan nan nan nan nan nan 65 69 73 72 69 62 58 50 43 45 36
nan nan nan nan nan nan nan nan nan nan nan nan nan nan nan nan nan nan nan nan nan nan nan nan nan nan nan nan nan nan nan nan nan 65 66 65 64 63 61 57 51 47 44 41
nan nan nan nan nan nan nan nan nan nan nan nan nan nan nan nan nan nan nan nan nan nan nan nan nan nan nan nan nan nan nan 38 47 56 64 62 67 67 64 62 54 48 46 46
nan nan nan nan nan nan nan nan nan nan nan nan nan nan nan nan nan nan nan nan nan nan nan nan nan nan nan nan nan nan 24 27 40 49 58 57 62 65 65 62 60 55 50 47
nan nan nan nan nan nan nan nan nan nan nan nan nan nan nan nan nan nan nan nan nan nan nan nan nan nan nan nan 37 32 32 27 26 37 47 56 59 62 60 62 62 59 53 54
nan nan nan nan nan nan nan nan nan nan nan nan nan nan nan nan nan nan nan nan nan nan nan nan nan nan nan nan nan 25 30 31 26 26 38 48 58 62 62 65 67 61 58 56
nan nan nan nan nan nan nan nan nan nan nan nan nan nan nan nan nan nan nan nan nan nan nan nan nan nan nan nan nan nan 32 34 18 21 34 44 56 58 59 64 67 64 61 61
nan nan nan nan nan nan nan nan nan nan nan nan nan nan nan nan nan nan nan nan nan nan nan nan nan nan nan nan nan nan nan 38 30 23 32 43 49 54 57 64 63 64 61 64
nan nan nan nan nan nan nan nan nan nan nan nan nan nan nan nan nan nan nan nan nan nan nan nan nan nan nan nan nan nan nan 28 29 30 28 43 49 54 53 58 61 61 63 64
nan nan nan nan nan nan nan nan nan nan nan nan nan nan nan nan nan nan nan nan nan nan nan nan nan nan nan nan nan nan nan nan 29 24 23 36 48 50 50 51 55 57 58 62
nan nan nan nan nan nan nan nan nan nan nan nan nan nan nan nan nan nan nan nan nan nan nan nan nan nan nan nan nan nan nan nan nan nan 30 34 45 38 46 47 51 59 60 61
nan nan nan nan nan nan nan nan nan nan nan nan nan nan nan nan nan nan nan nan nan nan nan nan nan nan nan nan nan nan nan nan nan nan nan 31 27 nan 11 48 55 64 64 63
nan nan nan nan nan nan nan nan nan nan nan nan nan nan nan nan nan nan nan nan nan nan nan nan nan nan nan nan nan nan nan nan nan nan nan nan 25 17 22 32 57 61 59 60
nan nan nan nan nan nan nan nan nan nan nan nan nan nan nan nan nan nan nan nan nan nan nan nan nan nan nan nan nan nan nan nan nan nan nan nan 33 29 31 29 31 42 48 50
nan nan nan nan nan nan nan nan nan nan nan nan nan nan nan nan nan nan nan nan nan nan nan nan nan nan nan nan nan nan nan nan nan nan nan 34 34 30 30 33 32 33 43 45
nan nan nan nan nan nan nan nan nan nan nan nan nan nan nan nan nan nan nan nan nan nan nan nan nan nan nan nan nan nan nan nan nan nan nan 34 37 32 35 37 32 31 32 40
nan nan nan nan nan nan nan nan nan nan nan nan nan nan nan nan nan nan nan nan nan nan nan nan nan nan nan nan nan nan nan nan nan nan nan 38 34 32 35 38 40 44 33 30
nan nan nan nan nan nan nan nan nan nan nan nan nan nan nan nan nan nan nan nan nan nan nan nan nan nan nan nan nan nan nan nan nan nan nan 40 33 29 31 34 nan 26 35 27
nan nan nan nan nan nan nan nan nan nan nan nan nan nan nan nan nan nan nan nan nan nan nan nan nan nan nan nan nan nan nan nan nan nan nan 43 38 34 33 29 29 22 35 23
nan nan nan nan nan nan nan nan nan nan nan nan nan nan nan nan nan nan nan nan nan nan nan nan nan nan nan nan nan nan nan nan nan nan 47 45 40 34 33 30 28 21 19 23
nan nan nan nan nan nan nan nan nan nan nan nan nan nan nan nan nan nan nan nan nan nan nan nan nan nan nan nan nan nan nan nan nan nan 46 44 42 36 32 31 21 20 20 nan
nan nan nan nan nan nan nan nan nan nan nan nan nan nan nan nan nan nan nan nan nan nan nan nan nan nan nan nan nan nan nan nan nan nan nan nan 39 38 36 31 26 19 nan nan
nan nan nan nan nan nan nan nan nan nan nan nan nan nan nan nan nan nan nan nan nan nan nan nan nan nan nan nan nan nan nan nan nan nan nan nan nan nan nan 31 27 22 nan nan
nan nan nan nan nan nan nan nan nan nan nan nan nan nan nan nan nan nan nan nan nan nan nan nan nan nan nan nan nan nan nan nan nan nan nan nan nan nan nan nan nan nan 36 37
Wind_Direction
nan nan nan nan nan nan nan nan nan nan nan nan nan nan nan nan nan nan nan nan nan nan nan nan nan nan nan nan nan nan nan 251 246 241 244 240 244 241 238 237 242 243 248 255
nan nan nan nan nan nan nan nan nan nan nan nan nan nan nan nan nan nan nan nan nan nan nan nan nan nan nan nan nan nan nan nan 248 239 237 240 241 243 243 243 229 245 245 249
nan nan nan nan nan nan nan nan nan nan nan nan nan nan nan nan nan nan nan nan nan nan nan nan nan nan nan nan nan nan nan nan nan 243 232 231 234 236 240 240 241 231 248 250
nan nan nan nan nan nan nan nan nan nan nan nan nan nan nan nan nan nan nan nan nan nan nan nan nan nan nan nan nan nan nan nan nan 242 233 231 231 236 238 241 244 240 243 248
nan nan nan nan nan nan nan nan nan nan nan nan nan nan nan nan nan nan nan nan nan nan nan nan nan nan nan nan nan nan nan 253 246 246 240 229 226 228 232 236 241 240 239 241
nan nan nan nan nan nan nan nan nan nan nan nan nan nan nan nan nan nan nan nan nan nan nan nan nan nan nan nan nan nan 237 252 251 247 247 234 228 224 227 229 234 236 236 236
nan nan nan nan nan nan nan nan nan nan nan nan nan nan nan nan nan nan nan nan nan nan nan nan nan nan nan nan 242 250 238 222 252 250 242 238 228 225 223 226 229 233 233 234
nan nan nan nan nan nan nan nan nan nan nan nan nan nan nan nan nan nan nan nan nan nan nan nan nan nan nan nan nan 246 237 223 243 251 241 234 226 225 222 223 225 229 231 235
nan nan nan nan nan nan nan nan nan nan nan nan nan nan nan nan nan nan nan nan nan nan nan nan nan nan nan nan nan nan 237 223 255 237 225 236 226 225 224 223 223 224 228 232
nan nan nan nan nan nan nan nan nan nan nan nan nan nan nan nan nan nan nan nan nan nan nan nan nan nan nan nan nan nan nan 213 222 252 225 223 223 220 223 225 222 223 225 231
nan nan nan nan nan nan nan nan nan nan nan nan nan nan nan nan nan nan nan nan nan nan nan nan nan nan nan nan nan nan nan 260 230 220 227 234 221 219 222 223 222 224 224 231
nan nan nan nan nan nan nan nan nan nan nan nan nan nan nan nan nan nan nan nan nan nan nan nan nan nan nan nan nan nan nan nan 237 206 217 234 226 214 217 223 226 229 231 232
nan nan nan nan nan nan nan nan nan nan nan nan nan nan nan nan nan nan nan nan nan nan nan nan nan nan nan nan nan nan nan nan nan nan 227 241 241 216 217 221 226 229 232 236
nan nan nan nan nan nan nan nan nan nan nan nan nan nan nan nan nan nan nan nan nan nan nan nan nan nan nan nan nan nan nan nan nan nan nan 244 255 nan 206 229 228 226 228 235
nan nan nan nan nan nan nan nan nan nan nan nan nan nan nan nan nan nan nan nan nan nan nan nan nan nan nan nan nan nan nan nan nan nan nan nan 261 245 219 234 231 229 226 230
nan nan nan nan nan nan nan nan nan nan nan nan nan nan nan nan nan nan nan nan nan nan nan nan nan nan nan nan nan nan nan nan nan nan nan nan 239 221 240 240 231 234 233 235
nan nan nan nan nan nan nan nan nan nan nan nan nan nan nan nan nan nan nan nan nan nan nan nan nan nan nan nan nan nan nan nan nan nan nan 235 239 223 236 240 237 241 233 237
nan nan nan nan nan nan nan nan nan nan nan nan nan nan nan nan nan nan nan nan nan nan nan nan nan nan nan nan nan nan nan nan nan nan nan 222 233 234 237 231 235 237 225 227
nan nan nan nan nan nan nan nan nan nan nan nan nan nan nan nan nan nan nan nan nan nan nan nan nan nan nan nan nan nan nan nan nan nan nan 216 223 235 239 237 229 230 214 210
nan nan nan nan nan nan nan nan nan nan nan nan nan nan nan nan nan nan nan nan nan nan nan nan nan nan nan nan nan nan nan nan nan nan nan 212 222 225 239 238 nan 242 219 212
nan nan nan nan nan nan nan nan nan nan nan nan nan nan nan nan nan nan nan nan nan nan nan nan nan nan nan nan nan nan nan nan nan nan nan 208 220 217 230 237 247 239 221 210
nan nan nan nan nan nan nan nan nan nan nan nan nan nan nan nan nan nan nan nan nan nan nan nan nan nan nan nan nan nan nan nan nan nan 203 216 220 208 218 235 229 219 213 213
nan nan nan nan nan nan nan nan nan nan nan nan nan nan nan nan nan nan nan nan nan nan nan nan nan nan nan nan nan nan nan nan nan nan 206 216 218 212 212 233 229 215 196 nan
nan nan nan nan nan nan nan nan nan nan nan nan nan nan nan nan nan nan nan nan nan nan nan nan nan nan nan nan nan nan nan nan nan nan nan nan 214 216 208 214 224 201 nan nan
nan nan nan nan nan nan nan nan nan nan nan nan nan nan nan nan nan nan nan nan nan nan nan nan nan nan nan nan nan nan nan nan nan nan nan nan nan nan nan 206 223 199 nan nan
nan nan nan nan nan nan nan nan nan nan nan nan nan nan nan nan nan nan nan nan nan nan nan nan nan nan nan nan nan nan nan nan nan nan nan nan nan nan nan nan nan nan 215 224